Location: Chinatown
(37.7966°N, 122.4086°W)
Time: 14:37:29
(UTC+00:00)

Envisat - Visible Passes

Search period start: 07 October 2024 00:00
Search period end: 17 October 2024 00:00
Orbit: 762 x 764 km, 98.3° (Epoch: 07 October)

Date Brightness Start Highest point End Pass type
(mag) Time Alt. Az. Time Alt. Az. Time Alt. Az.
07 Oct 6.0 10:20:53 10° NE 10:21:05 11° NE 10:21:05 11° NE visible
07 Oct 4.7 11:59:17 10° N 12:01:13 21° NNW 12:01:13 21° NNW visible
08 Oct 4.9 11:21:29 10° NNE 11:23:10 21° N 11:23:10 21° N visible
09 Oct 5.6 10:44:16 10° NNE 10:45:07 15° NNE 10:45:07 15° NNE visible
09 Oct 4.9 12:23:53 10° NNW 12:25:16 16° NNW 12:25:16 16° NNW visible
10 Oct 4.9 11:45:38 10° N 11:47:12 20° N 11:47:12 20° N visible
11 Oct 5.3 11:08:02 10° NNE 11:09:08 17° NNE 11:09:08 17° NNE visible
11 Oct 5.1 12:49:08 10° NW 12:49:17 10° NW 12:49:17 10° NW visible
12 Oct 6.0 10:31:04 10° NE 10:31:04 10° NE 10:31:04 10° NE visible
12 Oct 5.0 12:10:01 10° N 12:11:13 16° NNW 12:11:13 16° NNW visible
13 Oct 5.2 11:32:02 10° N 11:33:09 17° N 11:33:09 17° N visible
14 Oct 5.7 10:54:38 10° NNE 10:55:06 13° NNE 10:55:06 13° NNE visible
14 Oct 5.2 12:34:49 10° NNW 12:35:13 11° NNW 12:35:13 11° NNW visible
15 Oct 5.1 11:56:16 10° N 11:57:09 15° N 11:57:09 15° N visible
16 Oct 5.5 11:18:29 10° NNE 11:19:05 13° NNE 11:19:05 13° NNE visible
